Location: Zagreb
(45.8000°N, 16.0000°E)
Time: 23:28:07
(UTC+02:00)

Vanguard 1 - Pass Details

Date: 14 August 2022
Orbit: 649 x 3831 km, 34.3° (Epoch: 22 September)

Event Time Altitude Azimuth Distance (km) Brightness Sun altitude
Rises 04:29:52 0° 231° (SW) 5,377 - -13.6°
Reaches altitude 10° 04:32:58 10° 225° (SW) 4,732 - -13.2°
Exits shadow 04:34:13 14° 222° (SW) 4,503 12.8 -13.0°
Maximum altitude 04:46:48 49° 156° (SSE) 3,730 12.9 -11.2°
Drops below altitude 10° 05:07:46 10° 91° (E) 6,928 15.4 -8.1°
Sets 05:13:31 0° 87° (E) 7,962 16.0 -7.3°
